STARLINK-2292

Last updated on April 24, 2021, 12:02 a.m. UTC

1 48023U 21024AY  21113.25001157 -.01053787  00000-0 -90578-2 0  9999
2 48023  53.0479  55.6685 0001243  72.4991  97.5831 15.71278193  1822
UTC
Height (km)
Latitude
Longitude
Inclination
Orbital Period
UTC large
Height (km)
Speed (km/s)
/
Latitude / Longitude
Inclination (degrees)
Orbital Period (minutes)
Azimuth
Elevation
Range (km)
Doppler Factor
iOS Compass Heading
iOS Angle

Next 30 passes for location: Hong Kong

Rise time Rise Azimuth (degrees) Set time Set Azimuth (degrees) Duration Max altitude (degrees)

No matching passes for this satellites